Regional Weather Roundup
Issued by NWS

Home | Current Version | Previous Version | Text Only | Print | Product List | Glossary Off
Versions: 1 2 3 4 5 6 7 8 9 10 11 12 13 14 15 16 17 18 19 20 21 22 23 24 25 26 27 28 29 30 31 32 33 34 35 36 37 38 39 40 41 42 43 44 45 46 47 48 49 50

000
ASUS44 KMEG 271600
RWRTN
TENNESSEE HOURLY STATE WEATHER ROUNDUP
NATIONAL WEATHER SERVICE MEMPHIS TN
1100 AM CDT THU APR 27 2017

TNZ002-004-019-021-049-052-054-088>092-271700-
WEST TENNESSEE

CITY           SKY/WX    TMP DP  RH WIND       PRES   REMARKS
MEMPHIS INTL   PTSUNNY   57  47  69 W7        29.84R
NWS MEMPHIS      N/A     63 N/A N/A MISG        N/A
JACKSON        CLOUDY    55  48  77 W7        29.84R
DYERSBURG      CLOUDY    55  46  71 W8        29.83R
PARIS          CLOUDY    52  45  76 W9        29.81R
$$

TNZ008-025-027-028-033-062-065-066-271700-
NORTH MIDDLE TENNESSEE

CITY           SKY/WX    TMP DP  RH WIND       PRES   REMARKS
NASHVILLE      CLOUDY    65  55  70 W10G18    29.78R
CLARKSVILLE    CLOUDY    55  50  83 W9        29.78R
SMYRNA         MOSUNNY   66  57  72 W16       29.78R
CROSSVILLE     CLOUDY    62  57  83 W12       29.80R
$$

TNZ061-075-076-078-094-096-097-271700-
SOUTH MIDDLE TENNESSEE

CITY           SKY/WX    TMP DP  RH WIND       PRES   REMARKS
TULLAHOMA      PTSUNNY   70  57  64 SW9       29.79R
WINCHESTER     PTSUNNY   70  61  73 SW9       29.78R
MCMINNVILLE    PTSUNNY   70  61  73 SW15      29.77R
COLUMBIA         N/A     63  63 100 NW6       29.78R
SHELBYVILLE    PTSUNNY   72  63  73 W10       29.78R
$$

TNZ017-018-042-046-047-271700-
NORTHEAST TENNESSEE

CITY           SKY/WX    TMP DP  RH WIND       PRES   REMARKS
TRI CITIES     CLOUDY    74  56  53 S8        29.78R
$$

TNZ012-013-036-069-073-074-271700-
CENTRAL EAST TENNESSEE

CITY           SKY/WX    TMP DP  RH WIND       PRES   REMARKS
KNOXVILLE      CLOUDY    64  61  90 NW3       29.75R FOG
OAK RIDGE      CLOUDY    64  62  93 CALM      29.77S FOG
GATLINBURG     CLOUDY    63  61  94 W3        29.75R
$$

TNZ083-085-099-271700-
SOUTHEAST TENNESSEE

CITY           SKY/WX    TMP DP  RH WIND       PRES   REMARKS
CHATTANOOGA    PTSUNNY   69  63  81 SW3       29.77R
$$

SKY/WX REPORTED AS FAIR MEANS FEW OR NO CLOUDS BELOW
12 THOUSAND FEET.





USA.gov is the U.S. government's official web portal to all federal, state and local government web resources and services.